Location: Billancourt
(49.7365°N, 2.8941°E)
Time: 23:00:58
(UTC+00:00)

Daily predictions for brighter satellites

Satellite Brightness Start Highest point End
(mag) Time Altitude Azimuth Time Altitude Azimuth Time Altitude Azimuth
Cosmos 2098 Rocket 3.4 16:19:15 10° S 16:23:32 57° E 16:28:35 10° NNE
USA 290 2.6 16:22:05 10° NNW 16:25:20 70° WSW 16:28:34 10° SSE
Cosmos 2208 Rocket 4.5 16:20:43 10° NNW 16:25:52 67° WSW 16:31:00 10° S
Cosmos 1782 2.5 16:22:55 10° S 16:26:29 73° E 16:30:04 10° NNE
Cosmos 1933 4.3 16:23:45 10° SE 16:26:54 25° E 16:30:04 10° NNE
Cosmos 2227 Rocket 2.3 16:23:46 10° NNW 16:29:21 56° NE 16:34:54 10° SE
Meteor 1-28 Rocket 3.4 16:26:51 10° NNE 16:30:02 39° E 16:33:10 10° S
Cosmos 2369 Rocket 4.2 16:28:28 10° W 16:32:23 19° NW 16:36:20 10° N
CBERS-1 4.0 16:27:37 10° SSE 16:32:43 74° ENE 16:37:49 10° NNW
CENTAUR R/B 3.5 16:35:08 10° W 16:40:52 40° NNW 16:48:01 10° NE
Cosmos 2180 Rocket 4.5 16:34:48 10° S 16:40:53 69° E 16:47:02 10° NNE
Cosmos 1697 Rocket 3.0 16:36:11 10° S 16:41:33 49° ESE 16:46:57 10° NE
Cosmos 1626 Rocket 4.4 16:38:46 10° NNW 16:43:00 55° W 16:47:10 10° S
Cosmos 2360 4.3 16:37:24 10° SSW 16:43:08 85° WNW 16:48:55 10° NNE
CZ-2D R/B 3.6 16:41:51 10° SE 16:44:34 27° ENE 16:47:18 10° N
Cosmos 1538 Rocket 4.5 16:40:25 10° NNW 16:45:22 39° ENE 16:50:21 10° SE
NOSS 2-3 (C) 4.4 16:42:41 10° S 16:45:26 22° ESE 16:47:48 13° ENE
Cosmos 2266 Rocket 3.9 16:42:41 10° N 16:48:51 73° E 16:54:54 10° SSE
Cosmos 1656 4.2 16:45:25 10° SW 16:50:59 59° NW 16:56:38 10° NNE
Cosmos 1606 Rocket 3.9 16:48:34 10° SSE 16:52:47 46° E 16:57:02 10° NNE
Cosmos 1503 Rocket 4.0 16:49:50 10° SSW 16:55:04 84° ESE 17:00:18 10° NNE
Lacrosse 5 rocket 2.4 16:53:19 10° WNW 16:56:31 26° N 16:58:50 15° NE
UNK 3.8 16:54:27 10° NNE 16:58:57 57° E 17:03:25 10° S
CZ-4C R/B 3.5 16:52:19 10° NW 16:59:14 66° SW 17:07:47 10° SSE
Cosmos 1484 Rocket 3.6 16:56:26 10° S 16:59:50 49° W 17:03:14 10° NNW
Radarsat 4.5 16:55:44 10° SSE 17:00:52 71° ENE 17:06:03 10° N
Thor Agena Rocket 3.6 16:55:49 10° SSE 17:01:01 88° WSW 17:06:12 10° NNW
Cosmos 1743 3.7 16:58:12 10° NNW 17:01:18 41° W 17:04:21 10° SSW
Cosmos 1544 Rocket 4.5 16:57:57 10° SSW 17:02:14 50° WNW 17:06:35 10° N
IRS-P3 4.3 16:58:39 10° SE 17:03:44 49° ENE 17:08:51 10° N
NOSS 2-3 (D) 3.7 17:01:10 10° SSW 17:04:39 42° SE 17:07:02 19° ENE
NOSS 2-3 (E) 3.5 17:01:47 10° SSW 17:05:17 45° SE 17:07:43 19° ENE
Cosmos 1354 Rocket 4.0 17:00:51 10° SSW 17:06:05 75° ESE 17:11:21 10° NNE
IGS 5A 4.1 17:03:24 10° S 17:07:17 55° W 17:11:14 10° NNW
NOSS 2-2 (D) 4.5 17:05:20 10° W 17:07:56 23° NW 17:10:10 12° NNE
Cosmos 1777 Rocket 4.3 17:03:07 10° SSW 17:08:20 68° WNW 17:13:35 10° NNE
Cosmos 2151 3.7 17:05:19 10° NNW 17:09:24 55° W 17:13:27 10° S
Cosmos-2242 4.1 17:06:21 10° SE 17:09:44 23° E 17:11:23 19° NE
USA 238 DEB 4.0 17:04:20 10° S 17:10:02 43° ESE 17:14:48 17° NE
USA 238 4.0 17:04:27 10° S 17:10:09 43° ESE 17:14:54 17° NE
MOS 1 Rocket 3.5 17:05:45 10° SSE 17:10:38 58° ENE 17:15:49 10° N
Cosmos 1898 Rocket 4.4 17:09:37 10° SSE 17:13:58 28° E 17:16:31 19° ENE
Gbstr 26 Del rocket 2.8 17:10:08 10° WSW 17:14:14 67° SSE 17:16:29 23° ENE
Cosmos 1726 Rocket 3.7 17:10:45 10° S 17:15:18 58° E 17:19:47 10° NNE
ERS-1 4.4 17:11:47 10° SSE 17:16:44 69° ENE 17:21:41 10° N
USA 215 3.7 17:12:07 16° ENE 17:17:05 48° N 17:23:19 10° WNW
Cosmos 2082 4.0 17:12:21 10° NNW 17:17:51 45° NE 17:23:20 10° SE
AQUARIUS 4.0 17:13:52 10° SSE 17:18:13 66° ENE 17:22:37 10° N
SMAP 3.3 17:14:55 10° S 17:19:34 73° WSW 17:24:14 10° NNW
Cosmos 1805 3.7 17:17:28 10° N 17:20:27 28° ENE 17:23:24 10° SE
Cosmos 2297 Rocket 4.2 17:16:30 10° NW 17:21:25 31° WSW 17:26:20 10° SSW
GEOS 3 Rocket 3.7 17:19:09 17° NE 17:23:17 66° SE 17:28:37 10° SSW
Landsat 7 3.8 17:19:01 10° SSE 17:23:40 84° WSW 17:28:22 10° NNW
YAOGAN 1 3.1 17:22:41 10° SE 17:26:29 33° ENE 17:30:19 10° N
Cosmos 923 Rocket 4.4 17:22:02 10° NNW 17:26:54 38° ENE 17:31:44 10° SE
Cosmos 1937 Rocket 4.3 17:25:09 10° SSE 17:29:31 28° E 17:30:51 25° ENE
SL-16 R/B 4.1 17:28:38 10° SE 17:29:26 12° ESE 17:29:26 12° ESE
Cosmos 990 Rocket 4.0 17:28:21 10° SSW 17:33:29 79° WNW 17:38:14 12° NNE
Cosmos 1461 4.0 17:30:17 10° WSW 17:33:55 35° NW 17:36:23 17° NNE
CZ-2D R/B 3.7 17:30:34 10° SE 17:34:32 44° ENE 17:38:28 10° N
SL-16 R/B 3.4 17:28:58 10° N 17:34:56 50° WNW 17:40:51 10° SW
SKYMED 2 3.9 17:35:14 26° NE 17:37:13 42° E 17:41:20 10° S
COSMOS 2455 3.9 17:33:31 10° SSE 17:38:05 23° ESE 17:38:36 23° E
Meteor 2-2 Rocket 4.5 17:33:11 10° SSE 17:38:30 45° E 17:42:46 16° NNE
Okean 1 3.9 17:35:40 10° SSE 17:38:21 31° ESE 17:38:21 31° ESE
Cosmos 1844 Rocket 3.4 17:39:45 10° NNW 17:44:50 32° NE 17:45:49 30° ENE
SJ-6F 4.4 17:40:56 10° S 17:44:55 78° WSW 17:48:59 10° NNW
Cosmos 2219 3.1 17:39:19 10° NNW 17:45:06 80° ENE 17:50:51 10° SSE
Cosmos 1980 Rocket 2.1 17:40:15 10° SSW 17:45:51 70° ESE 17:49:21 24° NE
Cosmos 1953 Rocket 3.7 17:42:53 10° NNW 17:47:20 75° W 17:51:46 10° S
Aureole 1 Rocket 3.4 17:43:12 10° SSW 17:47:48 72° ESE 17:51:47 20° NNE
Meteor 1-26 Rocket 4.2 17:43:50 10° S 17:49:05 54° E 17:52:48 19° NNE
PSLV R/B 3.6 17:50:00 42° E 17:50:38 46° ENE 17:54:33 10° N
ARIANE 5 R/B 3.4 17:47:47 10° S 17:52:43 51° W 17:57:45 10° NNW
Cosmos 2263 Rocket 2.6 17:47:36 10° NNW 17:53:14 65° WSW 17:58:51 10° SSE
SL-19 R/B 4.2 17:48:15 10° SE 17:53:35 58° ENE 17:59:14 10° N
BREEZE-M DEB (TANK) 3.7 17:54:16 10° SW 17:57:14 26° SSE 17:57:14 26° SSE
COSMO-SKYMED 1 2.9 17:59:08 42° SE 17:59:08 42° SE 18:02:29 10° S
Cosmos 1680 Rocket 3.6 17:53:33 10° NNW 17:58:39 50° ENE 18:00:24 36° ESE
BREEZE-M DEB (TANK) 4.0 17:55:52 10° W 17:59:30 75° SSW 18:06:53 20° ESE
NOSS 3-2 (C) 4.1 17:54:35 10° WSW 17:59:40 45° NNW 18:03:20 22° NNE
NOAA 15 4.5 17:55:38 10° SSE 18:00:55 77° ENE 18:06:13 10° NNW
Cosmos 1076 Rocket 4.5 17:57:46 10° NNW 18:01:56 48° W 18:06:04 10° SSW
Meteor 2-10 4.2 17:56:47 10° NNW 18:02:12 78° W 18:07:46 10° S
NOAA 6 4.0 17:57:56 10° SE 18:02:54 55° ENE 18:07:52 10° N
Cosmos 2369 3.8 17:57:57 10° S 18:03:32 57° ESE 18:05:20 40° ENE
Resurs 01 Rocket 4.1 18:11:53 10° N 18:11:53 10° N 18:11:56 10° N
USA 81 4.3 18:06:05 10° N 18:11:20 71° W 18:16:34 10° S
Cosmos 44 Rocket 3.6 18:06:54 10° NNW 18:11:53 48° NE 18:11:53 48° NE
Cosmos 2227 Rocket 4.2 18:08:19 10° NW 18:13:03 28° WSW 18:17:47 10° SSW
SPOT 1/Viking Rocket 4.0 18:11:36 10° S 18:16:46 64° WSW 18:21:57 10° NNW
Cosmos 2058 Rocket 3.5 18:19:40 10° SSW 18:24:06 60° WNW 18:26:26 27° N
Cosmos 1697 Rocket 4.0 18:20:35 10° WSW 18:25:41 35° NW 18:29:16 18° N
OceanSat 1 rocket 4.5 18:21:37 10° SSE 18:26:21 89° WSW 18:31:06 10° NNW
USA 281 4.5 18:28:12 23° NNE 18:28:12 23° NNE 18:31:50 10° N
Cosmos 2333 Rocket 4.1 18:28:28 10° SSE 18:29:34 15° SSE 18:29:34 15° SSE
CENTAUR R/B 4.1 18:27:37 10° WNW 18:33:33 29° N 18:35:36 26° NNE
Lacrosse 5 rocket 3.1 18:30:54 10° NW 18:32:26 20° NNW 18:32:26 20° NNW
Meteor 2-11 Rocket 4.4 18:28:06 10° N 18:34:18 88° WSW 18:40:27 10° S
Cosmos 2278 Rocket 4.5 18:32:22 10° N 18:32:43 11° N 18:32:43 11° N
NOSS 2-3 (C) 4.4 18:32:07 10° WSW 18:34:52 35° WNW 18:34:52 35° WNW
Meteor 1-14 Rocket 4.1 18:32:43 10° N 18:38:32 78° ENE 18:39:10 68° SE
Cosmos-2242 4.3 18:42:35 10° SW 18:46:33 38° WNW 18:47:46 31° NW
Cosmos 1898 Rocket 4.3 18:50:45 10° SW 18:55:43 47° WNW 18:56:45 41° NNW
Cosmos 1844 4.0 18:50:18 10° NNW 18:54:37 54° NNW 18:54:37 54° NNW
USA 215 3.4 18:59:28 56° NNE 18:59:32 56° NNE 19:05:55 10° WNW
Cosmos 2112 Rocket 4.3 18:55:11 10° NNW 18:59:48 62° WNW 18:59:48 62° WNW
USA 238 DEB 4.1 18:54:43 10° WSW 19:00:49 54° NW 19:02:15 46° N
USA 238 4.0 18:54:48 10° WSW 19:00:56 54° NW 19:02:21 46° N
YAOGAN 1 4.4 18:58:37 10° SSW 19:02:21 29° W 19:06:07 10° NNW
BREEZE-M DEB (TANK) 4.0 19:01:42 10° SW 19:06:16 41° SSW 19:06:16 41° SSW
Cosmos 1937 Rocket 4.3 19:06:11 10° SW 19:10:58 47° WNW 19:10:58 47° WNW
SL-16 R/B 3.6 19:08:46 10° SSW 19:11:20 28° SSW 19:11:20 28° SSW
Cosmos 1745 Rocket 4.3 19:10:13 10° NNW 19:16:18 62° W 19:22:19 10° S
COSMOS 2455 3.5 19:17:22 10° SW 19:21:46 51° SW 19:21:46 51° SW
Cosmos 1844 Rocket 3.7 19:23:28 10° NW 19:27:31 43° WNW 19:27:31 43° WNW
Cosmos 1980 Rocket 3.8 19:25:37 10° WSW 19:30:22 27° NW 19:31:07 26° NNW
CENTAUR R/B 4.5 20:19:06 10° NW 20:22:41 28° NNW 20:22:41 28° NNW
